sat.trackr.live / text

‹ back to catalog

INTELSAT 31 (IS-31)

NORAD 41581 · 2016-035A

PAYLOAD ACTIVE UNKNOWN

§ Identity

Operator
Country
ITSO
Launch date
2016-06-09
Launch site
TYMSC
Launch vehicle
Mass (kg)
RCS (m²)
7.89

Purposes: comms

External: N2YO · Heavens-Above · Gunter

§ Orbital elements

Epoch: 2026-09-13T01:25:38.768736Z

Period
1,436.07 min
Inclination
0.0261°
Eccentricity
0.0001440
Mean motion
1.00273350 rev/d
Perigee alt
35,780.1 km
Apogee alt
35,792.2 km
Semi-major
42,164.3 km
B*
0.0000e+0
RAAN
238.2086°
Arg perigee
63.5468°
Mean anomaly
336.6773°
Rev number
3,756

§ Raw data

INTELSAT 31 (IS-31)1 41581U 16035A   26256.05947649 -.00000163  00000+0  00000+0 0  99982 41581   0.0261 238.2086 0001440  63.5468 336.6773  1.00273350 37567

JSON: /api/v1/satellites/41581 · /tle

For live sub-satellite position, see the globe view (requires WebGL).

§ Visibility from observer

Set your observer location to see the next 7 days of passes ≥ 10°. The values pass through the URL so the page stays shareable.

No JS? Fill the form by hand. The geolocation button needs JavaScript.